Location: Surin
(14.8830°N, 103.4830°E)
Time: 14:38:14
(UTC+07:00)

ISS - Visible Passes

Search period start: 20 November 2018 00:00
Search period end: 30 November 2018 00:00
Orbit: 401 x 408 km, 51.6° (Epoch: 20 November)

Date Brightness Start Highest point End Pass type
(mag) Time Alt. Az. Time Alt. Az. Time Alt. Az.
20 Nov -3.1 05:15:57 24° WNW 05:17:17 35° SW 05:20:19 10° SSE visible
20 Nov -2.9 18:30:55 10° SW 18:34:03 45° NW 18:36:11 18° NNE visible
21 Nov -2.1 04:26:41 31° SE 04:26:41 31° SE 04:28:31 10° SE visible
22 Nov -1.0 18:24:37 10° W 18:26:19 13° NW 18:28:00 10° NNW visible
